GEFSMA_con_cape1000_108.txt.gz
Probability
19 16 16 13 6 6 6 6 6 13 3 3 10 10 10 6 13 19 45 71 87 94 94 90 94 94 94 90 87 94 84 74 77 87 77 65 48 39 35 23 23 16 16
13 10 10 3 3 3 6 6 6 3 3 3 6 6 6 10 6 23 39 71 84 94 94 90 94 94 84 81 84 87 94 81 84 94 87 87 77 55 32 26 23 19 23
6 6 6 3 3 3 3 3 0 0 0 3 3 6 10 10 6 13 29 55 81 87 90 87 87 94 90 87 74 81 90 90 94 97 97 94 87 68 65 58 35 32 23
6 3 3 3 3 3 3 0 0 0 0 0 0 0 3 13 13 13 23 42 65 74 84 87 94 94 90 84 81 81 81 87 97 90 87 94 84 74 61 55 58 42 19
10 3 0 0 0 0 0 0 0 0 0 0 0 0 0 3 10 13 13 23 32 48 61 71 84 90 81 84 81 84 81 84 81 81 81 81 81 84 65 55 58 45 19
16 0 0 0 0 0 0 0 0 0 0 0 0 0 0 0 3 6 6 10 16 32 32 42 65 68 81 81 81 81 77 81 84 81 71 71 71 87 58 52 48 39 26
13 0 3 0 0 0 0 0 0 0 0 0 0 0 0 0 0 0 0 3 3 3 10 19 29 39 48 48 65 77 65 71 74 74 68 74 77 84 68 48 39 39 39
6 0 0 0 0 0 0 0 0 0 0 0 0 0 0 0 0 0 0 0 0 6 3 3 3 13 16 26 13 29 68 71 61 71 74 71 77 77 65 55 42 23 23
0 0 0 0 0 0 0 0 0 0 0 0 0 0 0 0 0 0 0 0 0 3 0 3 3 3 6 10 13 0 42 58 68 61 74 81 65 48 45 45 42 26 19
0 0 0 0 0 0 0 0 0 0 0 0 0 0 0 0 0 0 0 0 0 0 0 0 0 3 3 3 3 0 0 13 58 74 84 81 74 48 35 45 55 48 29
0 0 0 0 0 0 0 0 0 0 0 0 0 0 0 0 0 0 0 0 0 0 0 0 0 3 6 6 3 3 0 3 6 29 61 71 68 71 65 61 52 52 48
0 0 0 0 0 0 0 0 0 0 0 0 0 0 0 0 0 0 0 0 0 0 0 0 0 0 3 3 3 3 3 3 0 3 3 13 45 52 58 61 55 55 52
0 0 0 0 0 0 0 0 0 0 0 0 0 0 0 0 0 0 0 0 0 0 0 0 0 0 0 3 3 0 3 3 0 0 0 0 3 6 16 39 42 45 48
0 0 0 0 0 0 0 0 0 0 0 0 0 0 0 0 0 0 0 0 0 0 0 0 0 0 0 0 0 0 0 0 0 0 0 0 0 0 0 0 0 3 13
0 0 0 0 0 0 0 0 0 0 0 0 0 0 0 0 0 0 0 0 0 0 0 0 0 0 0 0 0 0 0 0 0 0 0 0 0 0 0 0 0 0 0
0 0 0 0 0 0 0 0 0 0 0 0 0 0 0 0 0 0 0 0 0 0 0 0 0 0 0 0 0 0 0 0 0 0 0 0 0 0 0 0 0 0 0
0 0 0 0 0 0 0 0 0 0 0 0 0 0 0 0 0 0 0 0 0 0 0 0 0 0 0 0 0 0 0 0 0 0 0 0 0 0 0 0 0 0 0
0 0 0 0 0 0 0 0 0 0 0 0 0 0 0 0 0 0 0 0 0 0 0 0 0 0 0 0 0 0 0 0 0 0 0 0 0 0 0 0 0 0 0
0 0 0 0 0 0 0 0 0 0 0 0 0 0 0 0 0 0 0 0 0 0 0 0 0 0 0 0 0 0 0 0 0 0 0 0 0 0 0 0 0 0 0
0 0 0 0 0 0 0 0 0 0 0 0 0 0 0 0 0 0 0 0 0 0 0 0 0 0 0 0 0 0 0 0 0 0 0 0 0 0 0 0 0 0 0
0 0 0 0 3 0 0 0 0 0 0 0 0 0 0 0 0 0 0 0 0 0 0 0 0 0 0 0 0 0 0 0 0 0 0 0 0 0 0 0 0 0 0
0 0 0 0 3 0 0 0 0 0 0 0 0 0 0 0 0 0 0 0 0 0 0 0 0 0 0 0 0 0 0 0 0 0 0 0 0 0 0 0 0 0 0
0 0 3 3 3 3 0 0 0 0 0 0 0 0 0 0 0 0 0 0 0 0 0 0 0 0 0 0 0 0 0 0 0 0 0 0 0 0 0 0 0 0 0
3 3 3 3 3 3 0 0 0 0 0 0 0 0 0 0 0 0 0 0 0 0 0 0 0 0 0 0 0 0 0 0 0 0 0 0 0 0 0 0 0 0 0
0 0 3 3 3 3 0 0 0 0 0 0 0 0 0 0 0 0 0 0 0 0 0 0 0 0 0 0 0 0 0 0 0 0 0 0 0 0 0 0 0 0 0
0 0 0 0 3 3 0 0 0 0 0 0 0 0 0 0 0 0 0 0 0 0 0 0 0 0 0 0 0 0 0 0 0 0 0 0 0 0 0 0 0 0 0

GEFSMA_con_cape1000_114.txt.gz
Probability
84 77 90 97 74 81 87 84 61 77 77 65 42 48 52 52 32 26 65 84 87 94 90 84 84 81 74 74 84 77 71 65 71 68 71 45 35 29 19 16 6 6 6
81 81 90 94 74 68 61 65 58 74 65 58 52 55 42 42 52 39 39 68 74 84 81 77 77 81 71 68 65 65 68 68 71 77 74 65 45 29 19 13 10 6 10
90 87 68 90 65 68 90 77 68 55 61 52 61 45 45 61 55 55 26 52 65 74 84 81 81 84 77 58 48 55 65 74 74 71 77 74 68 55 39 35 23 23 16
87 90 77 55 71 61 48 68 52 42 39 45 48 29 48 68 58 48 32 42 55 52 65 84 84 90 84 68 65 65 68 68 71 71 71 74 74 71 58 48 48 42 35
84 77 81 81 74 55 39 29 42 29 35 48 35 52 23 35 48 32 29 32 42 48 58 74 87 87 77 65 68 58 65 68 71 77 61 68 65 74 74 65 55 52 48
77 74 71 84 52 45 48 45 55 61 45 52 6 10 19 29 39 32 23 26 45 32 32 35 71 68 81 74 74 61 55 61 68 68 74 71 71 74 81 58 58 52 45
68 71 52 68 55 45 39 26 35 39 42 35 19 29 26 13 16 48 19 23 23 29 39 35 61 65 68 58 48 65 58 55 65 74 77 74 68 74 81 58 42 39 39
61 58 65 52 42 52 48 42 42 35 35 35 35 35 32 23 26 3 26 35 19 32 26 32 42 48 39 65 23 55 52 58 58 65 74 84 71 68 65 55 45 26 26
55 55 55 45 42 29 39 48 48 42 35 35 26 19 26 13 13 10 6 16 39 39 19 23 26 29 29 39 55 32 52 55 52 58 77 81 74 58 45 48 45 32 19
52 55 52 58 45 29 48 32 23 32 42 39 29 29 16 6 6 19 19 16 19 26 26 10 10 29 32 42 39 16 32 32 52 55 68 68 74 48 42 45 42 52 39
48 42 55 52 39 32 32 32 45 35 26 29 13 16 13 10 3 6 13 13 19 16 16 23 32 23 32 29 52 26 16 10 13 32 42 61 61 61 58 58 48 55 58
42 45 42 42 39 32 35 39 42 39 32 32 23 16 6 6 6 6 3 19 13 13 6 23 19 26 26 26 19 13 16 3 0 0 10 26 39 42 48 52 45 48 52
29 42 29 48 35 35 42 35 42 32 29 35 29 19 10 6 3 3 6 6 10 13 3 13 10 19 16 32 32 6 10 0 0 0 0 0 0 6 26 35 45 45 52
26 32 32 35 29 19 19 32 16 19 19 19 10 26 16 3 3 3 6 10 6 13 6 0 6 13 16 23 6 0 10 0 0 0 0 0 0 0 0 0 6 10 16
29 32 26 29 19 23 19 29 13 23 26 23 10 13 10 6 3 3 6 6 13 10 16 10 6 10 10 19 0 13 13 0 0 0 0 0 0 0 0 0 0 0 0
26 23 23 16 19 23 23 19 23 26 23 26 23 13 10 6 6 0 0 6 0 6 6 10 6 6 6 0 0 3 6 0 0 0 0 0 0 0 0 0 0 0 0
32 19 29 26 13 19 16 26 13 13 13 19 16 13 13 13 3 3 0 0 0 0 3 3 10 6 13 13 6 6 6 10 3 0 0 0 0 0 0 0 0 0 0
32 13 16 23 19 13 10 10 6 6 6 13 10 16 6 6 13 13 6 6 6 13 3 10 6 6 10 6 10 6 0 0 3 0 0 0 0 0 0 0 0 0 0
26 23 19 26 23 19 29 19 6 3 10 3 3 6 3 3 6 3 0 6 6 0 3 3 0 6 3 0 6 0 0 0 0 0 0 0 0 0 0 0 0 0 0
29 19 19 19 16 16 23 19 13 23 10 6 3 3 0 0 0 0 0 0 0 0 0 3 0 0 3 0 3 0 0 0 0 0 0 0 0 0 0 0 0 0 0
19 29 26 23 19 19 19 23 19 10 10 6 6 3 0 0 0 0 0 0 0 0 3 3 0 3 6 0 0 0 0 0 0 0 0 0 0 0 0 0 0 0 0
19 19 19 19 16 6 0 0 13 10 13 10 6 3 0 0 0 0 0 0 0 0 0 0 3 3 3 0 0 0 0 0 0 0 0 0 0 0 0 0 0 0 0
19 19 19 19 19 6 0 0 0 13 6 6 6 3 3 0 0 0 0 0 0 0 0 3 3 3 0 0 0 0 0 0 0 0 0 0 0 0 0 0 0 0 0
19 19 19 19 19 6 0 0 0 0 3 6 6 3 3 0 0 0 0 0 0 0 0 0 0 0 0 0 0 0 0 0 0 0 0 0 0 0 0 0 0 0 0
19 16 16 13 13 6 3 0 0 3 3 6 3 3 3 0 0 0 0 0 0 0 0 0 0 0 0 0 0 0 0 0 0 0 0 0 0 0 0 0 0 0 0
13 10 10 13 13 6 3 0 0 3 6 3 3 3 0 0 0 0 0 0 0 0 0 0 0 0 0 0 0 0 0 0 0 0 0 0 0 0 0 0 0 0 0

GEFSMA_con_cape1000_120.txt.gz
Probability
97 97 100 100 100 100 100 100 100 100 90 84 77 58 71 55 48 32 55 90 90 90 87 74 65 65 71 71 77 74 77 68 74 68 55 45 39 29 23 16 13 19 16
97 97 100 100 100 100 100 100 100 100 97 94 87 71 61 58 65 48 48 77 90 81 84 81 77 68 71 71 77 81 68 74 68 65 71 65 48 29 23 16 10 10 13
97 97 100 100 100 100 100 100 97 100 94 94 84 74 84 65 68 71 55 48 68 84 84 84 84 84 74 71 58 71 77 71 77 81 74 65 61 48 39 32 23 19 16
94 94 94 94 100 100 100 100 97 94 90 90 84 87 87 94 74 74 61 55 45 32 77 84 81 81 74 65 52 55 74 81 81 81 81 74 68 65 55 48 42 45 29
94 90 90 97 90 97 100 77 97 87 90 87 84 81 84 90 87 55 71 55 61 52 32 74 84 84 77 74 68 61 65 74 74 77 74 71 74 68 61 61 58 61 58
94 94 90 90 87 97 94 94 87 90 87 81 29 52 74 87 84 77 55 74 68 52 52 42 68 71 81 84 81 77 74 71 81 84 81 68 74 68 74 61 58 55 58
94 94 87 87 90 94 90 74 77 74 71 74 68 58 65 68 77 94 77 77 68 65 65 55 39 29 39 77 81 87 74 71 77 77 74 74 81 74 77 71 45 42 39
84 74 87 84 87 90 77 68 77 77 71 71 71 42 35 48 68 32 74 71 61 52 58 52 68 65 42 29 16 77 77 71 68 68 65 74 81 81 74 68 42 29 26
81 94 84 81 87 77 77 74 71 68 58 71 65 52 26 23 23 45 65 68 71 77 65 61 65 77 68 52 35 13 71 74 68 65 68 77 81 65 61 65 58 39 29
81 81 77 84 84 77 84 74 68 65 68 74 68 68 61 58 32 19 61 58 68 74 61 42 35 58 65 58 52 26 39 61 65 65 61 68 74 61 52 45 61 58 45
71 71 77 77 81 84 84 74 84 74 74 77 74 61 55 68 58 26 13 26 45 48 61 68 52 61 42 52 45 29 32 42 45 45 52 52 58 61 58 48 52 55 55
74 71 77 77 74 81 81 71 65 68 74 71 71 71 52 45 42 48 29 23 19 48 52 58 48 42 35 35 29 26 26 16 13 16 29 32 39 48 48 48 52 45 52
74 84 68 77 68 74 68 74 81 77 65 58 74 65 65 61 61 48 29 32 23 39 45 61 45 39 29 26 10 19 16 0 0 0 0 0 13 16 23 35 39 42 39
74 81 74 61 68 68 45 58 58 52 58 58 39 58 71 74 58 35 26 32 23 13 26 32 39 39 26 23 6 3 10 0 0 0 0 0 0 0 0 3 6 10 16
65 68 58 58 58 55 55 68 61 68 65 52 45 58 61 52 39 39 39 35 29 10 10 23 13 35 32 19 0 10 10 0 0 0 0 0 0 0 0 0 0 0 0
71 58 45 58 55 58 58 61 61 65 52 45 61 55 48 29 29 29 29 32 29 29 16 6 23 26 23 3 0 13 13 0 0 0 0 0 0 0 0 0 0 0 0
58 52 52 61 55 48 42 52 52 42 45 32 23 23 39 32 29 29 26 26 19 29 16 16 19 19 16 10 3 13 13 3 0 0 0 0 0 0 0 0 0 0 0
48 55 58 58 52 52 52 45 39 39 26 23 16 23 23 16 32 26 16 19 19 19 13 6 6 6 6 6 10 6 0 0 0 0 0 0 0 0 0 0 0 0 0
45 52 55 52 42 45 45 45 32 32 26 23 19 13 19 23 23 19 16 13 10 10 10 6 6 6 3 0 0 0 0 0 0 0 0 0 0 0 0 0 0 0 0
39 45 42 48 39 32 29 29 29 32 29 23 23 19 19 13 16 13 10 10 6 6 6 6 3 3 0 0 0 0 0 0 0 0 0 0 0 0 0 0 0 0 0
35 39 32 35 29 26 29 32 29 29 29 19 16 10 6 3 6 6 3 6 3 6 3 3 0 0 0 0 0 3 0 0 0 0 0 0 0 0 0 0 0 0 0
35 32 29 23 19 16 6 6 29 26 23 23 13 6 3 3 3 0 0 0 0 0 0 0 0 0 0 3 3 0 0 0 0 0 0 0 0 0 0 0 0 0 0
26 26 19 19 19 16 3 0 3 19 23 23 10 6 3 3 3 3 0 0 0 0 0 0 0 3 3 0 0 0 0 0 0 0 0 0 0 0 0 0 0 0 0
23 19 23 23 23 19 3 0 0 6 16 13 10 6 6 3 3 3 3 0 0 0 0 0 0 0 0 0 0 0 0 0 0 0 0 0 0 0 0 0 0 0 0
23 23 23 23 23 16 3 0 0 3 10 3 6 6 6 3 3 0 0 3 0 0 0 0 0 0 0 0 0 0 0 0 0 0 0 0 0 0 0 0 0 0 0
23 23 16 16 13 13 3 0 0 3 3 6 6 6 3 0 3 0 0 3 0 0 0 0 0 0 0 0 0 0 0 0 0 0 0 0 0 0 0 0 0 0 0

GEFSMA_con_cape1000_126.txt.gz
Probability
23 23 23 23 23 19 6 3 3 3 3 3 3 3 3 3 6 13 48 81 94 94 90 87 84 84 90 90 87 81 68 61 68 71 71 58 55 42 26 16 13 16 16
29 26 26 26 26 19 13 6 6 6 3 6 3 3 3 3 3 3 26 74 87 94 94 90 87 87 87 87 81 84 84 74 81 74 81 74 61 39 35 35 19 19 23
26 19 23 19 19 16 10 6 6 6 3 0 3 3 3 3 3 10 16 32 68 90 94 94 97 90 87 90 81 84 87 84 87 81 77 68 58 45 42 35 32 29 16
19 16 13 16 16 6 10 6 6 3 0 0 0 3 3 3 3 6 6 13 26 48 81 84 94 90 87 81 77 74 87 87 84 84 81 71 65 48 39 48 45 39 23
23 13 13 13 6 3 6 10 6 0 0 0 0 0 0 0 3 3 3 6 3 10 23 71 84 87 81 77 74 74 74 81 84 81 77 68 68 55 39 35 32 32 23
32 10 6 16 10 3 3 3 3 3 0 0 0 0 0 0 0 3 3 6 3 3 3 10 52 68 77 81 81 81 71 77 77 74 65 74 74 68 42 32 29 26 35
23 10 13 10 3 3 3 3 0 3 0 0 0 0 0 0 0 0 0 0 3 3 3 3 3 3 19 74 77 90 71 77 77 77 77 71 68 65 39 29 19 13 10
13 16 0 10 3 0 0 3 0 0 0 0 0 0 0 0 3 0 0 0 0 0 0 0 0 0 0 0 10 58 77 77 68 71 81 71 71 65 52 29 19 10 6
19 10 0 0 0 0 0 0 0 0 0 0 0 0 0 0 0 0 0 0 0 0 0 0 0 0 0 0 0 6 61 68 71 61 61 55 55 42 26 29 29 29 16
19 10 6 0 0 0 0 0 0 0 0 0 0 0 0 0 0 0 0 0 0 0 0 0 0 0 0 0 0 0 13 35 55 61 58 58 58 39 32 35 35 32 26
13 10 6 0 0 0 0 0 0 0 0 0 0 0 0 0 0 0 0 0 0 0 0 0 0 0 0 0 0 0 6 6 29 45 52 52 52 52 39 39 35 32 35
3 3 3 3 0 0 0 0 0 0 0 0 0 0 0 0 0 0 0 0 0 0 0 0 0 0 0 0 0 3 3 3 3 0 10 26 26 26 26 26 26 23 23
3 3 3 3 0 0 0 0 0 0 0 0 0 0 0 0 0 0 0 0 0 0 0 0 0 0 0 0 0 3 3 6 0 0 3 3 10 13 13 16 16 16 13
3 3 3 3 3 0 0 0 0 0 0 0 0 0 0 0 0 0 0 0 0 0 0 0 0 0 0 0 0 0 0 3 0 0 0 0 0 0 0 0 0 0 0
3 3 3 6 6 0 0 0 0 0 0 0 0 0 0 0 0 0 0 0 0 0 0 0 0 0 0 0 0 0 0 0 0 0 0 0 0 0 0 0 0 0 0
3 6 6 6 3 3 0 0 0 0 0 0 0 0 0 0 0 0 0 0 0 0 0 0 0 0 0 0 0 0 0 0 0 0 0 0 0 0 0 0 0 0 0
3 3 0 3 3 0 0 0 0 0 0 0 0 0 0 0 0 0 0 0 0 0 0 0 0 0 0 0 0 0 0 0 0 0 0 0 0 0 0 0 0 0 0
0 0 0 0 0 0 0 0 0 0 0 0 0 0 0 0 0 0 0 0 0 0 0 0 0 0 0 0 0 0 0 0 0 0 0 0 0 0 0 0 0 0 0
6 0 0 0 0 0 0 0 0 0 0 0 0 0 0 0 0 0 0 0 0 0 0 0 0 0 0 0 0 0 0 0 0 0 0 0 0 0 0 0 0 0 0
13 6 3 3 3 3 3 0 0 0 0 0 0 0 0 0 0 0 0 0 0 0 0 0 0 0 0 0 0 0 0 0 0 0 0 0 0 0 0 0 0 0 0
13 13 10 6 0 0 3 3 3 0 0 0 0 0 0 0 0 0 0 0 0 0 0 0 0 0 0 0 0 0 0 0 0 0 0 0 0 0 0 0 0 0 0
10 10 10 13 6 6 3 0 3 3 0 0 0 0 0 0 0 0 0 0 0 0 0 0 0 0 0 0 0 0 0 0 0 0 0 0 0 0 0 0 0 0 0
10 10 10 10 10 10 6 0 0 3 3 0 0 0 0 3 0 0 0 0 0 0 0 0 0 0 0 0 0 0 0 0 0 0 0 0 0 0 0 0 0 0 0
13 10 10 10 10 6 3 0 0 0 0 0 0 0 0 0 0 0 0 0 0 0 0 0 0 0 0 0 0 0 0 0 0 0 0 0 0 0 0 0 0 0 0
6 10 6 3 3 3 3 0 0 0 0 0 0 0 0 0 0 0 0 0 0 0 0 0 0 0 0 0 0 0 0 0 0 0 0 0 0 0 0 0 0 0 0
3 3 0 0 0 3 3 0 0 0 0 0 0 0 0 0 0 0 0 0 0 0 0 0 0 0 0 0 0 0 0 0 0 0 0 0 0 0 0 0 0 0 0

GEFSMA_con_cape1000_132.txt.gz
Probability
13 13 13 13 10 0 3 6 6 6 3 3 6 6 3 13 10 26 48 68 81 84 84 84 77 71 68 68 68 65 61 58 65 52 55 48 35 19 16 10 13 10 10
13 13 13 3 0 0 0 3 3 3 3 3 6 6 6 10 13 19 35 61 77 84 84 84 74 74 68 71 74 71 71 58 58 61 61 52 48 39 10 10 10 10 13
10 13 6 6 0 6 6 3 3 3 3 3 3 6 6 3 13 19 39 48 68 77 81 84 87 87 87 81 77 74 77 68 68 65 58 58 39 35 32 23 19 13 13
3 3 10 10 3 6 6 3 3 0 0 0 0 3 3 3 3 10 19 35 58 61 68 74 84 87 77 68 68 61 74 81 77 74 65 55 42 32 29 26 19 19 13
3 6 13 10 3 0 0 3 3 0 0 0 0 0 3 3 3 6 13 16 19 29 52 52 81 84 81 61 61 68 61 65 77 58 52 52 42 35 23 19 13 6 3
10 6 6 3 0 0 0 0 0 0 0 0 0 0 0 0 3 3 3 3 6 10 16 29 52 61 71 65 68 61 68 65 65 61 52 48 39 42 19 16 10 10 6
6 6 6 0 0 0 0 0 0 0 0 0 0 0 0 0 0 0 0 3 3 10 3 10 16 29 39 42 48 65 61 52 48 61 58 52 55 45 26 19 6 6 6
10 6 0 0 0 0 0 0 0 0 0 0 0 0 0 0 0 0 0 0 3 3 3 3 6 10 3 13 13 26 55 58 55 55 52 55 48 45 35 29 10 0 0
10 10 0 0 0 0 0 0 0 0 0 0 0 0 0 0 0 0 0 0 0 3 3 3 3 3 3 3 0 0 19 45 52 39 48 48 42 39 26 19 16 10 6
10 6 3 0 0 0 0 0 0 0 0 0 0 0 0 0 0 0 0 0 0 0 0 0 0 0 0 0 0 0 0 10 32 42 45 48 39 26 13 13 16 19 19
3 6 10 0 0 0 0 0 0 0 0 0 0 0 0 0 0 0 0 0 0 0 0 0 0 0 0 0 0 0 0 0 3 19 29 39 32 26 23 16 16 19 16
3 0 3 0 0 0 0 0 0 0 0 0 0 0 0 0 0 0 0 0 0 0 0 0 0 0 0 0 0 0 0 0 0 0 3 13 19 16 19 16 16 16 13
3 3 6 0 0 0 0 0 0 0 0 0 0 0 0 0 0 0 0 0 0 0 0 0 0 0 0 0 0 0 0 0 0 0 0 0 3 6 6 6 10 10 10
3 3 3 6 3 0 0 0 0 0 0 0 0 0 0 0 0 0 0 0 0 0 0 0 0 0 0 0 0 0 0 0 0 0 0 0 0 0 0 3 3 3 0
3 3 3 6 6 3 0 0 0 0 0 0 0 0 0 0 0 0 0 0 0 0 0 0 0 0 0 0 0 0 0 0 0 0 0 0 0 0 0 0 0 0 0
0 0 0 0 3 3 6 0 0 0 0 0 0 0 0 0 0 0 0 0 0 0 0 0 0 0 0 0 0 0 0 0 0 0 0 0 0 0 0 0 0 0 0
0 0 0 0 0 3 3 0 0 0 0 0 0 0 0 0 0 0 0 0 0 0 0 0 0 0 0 0 0 0 0 0 0 0 0 0 0 0 0 0 0 0 0
0 0 0 0 0 0 0 3 0 0 0 0 0 0 0 0 0 0 0 0 0 0 0 0 0 0 0 0 0 0 0 0 0 0 0 0 0 0 0 0 0 0 0
3 3 0 0 0 0 0 0 0 0 0 0 0 0 0 0 0 0 0 0 0 0 0 0 0 0 0 0 0 0 0 0 0 0 0 0 0 0 0 0 0 0 0
6 6 3 3 0 0 0 0 0 0 0 0 0 0 0 0 0 0 0 0 0 0 0 0 0 0 0 0 0 0 0 0 0 0 0 0 0 0 0 0 0 0 0
10 3 3 3 6 0 0 0 0 0 0 0 0 0 0 0 0 0 0 0 0 0 0 0 0 0 0 0 0 0 0 0 0 0 0 0 0 0 0 0 0 0 0
6 3 6 3 3 3 0 0 0 0 0 0 0 0 0 0 0 0 0 0 0 0 0 0 0 0 0 0 0 0 0 0 0 0 0 0 0 0 0 0 0 0 0
3 3 3 3 6 3 0 0 0 0 0 3 0 0 0 0 0 0 0 0 0 0 0 0 0 0 0 0 0 0 0 0 0 0 0 0 0 0 0 0 0 0 0
6 3 3 3 3 3 0 0 0 0 0 0 0 0 0 0 0 0 0 0 0 0 0 0 0 0 0 0 0 0 0 0 0 0 0 0 0 0 0 0 0 0 0
0 3 0 0 0 0 0 0 0 0 0 0 0 0 0 0 0 0 0 0 0 0 0 0 0 0 0 0 0 0 0 0 0 0 0 0 0 0 0 0 0 0 0
3 3 3 0 0 0 0 0 0 0 0 0 0 0 0 0 0 0 0 0 0 0 0 0 0 0 0 0 0 0 0 0 0 0 0 0 0 0 0 0 0 0 0

GEFSMA_con_cape1000_138.txt.gz
Probability
77 74 90 94 58 74 87 84 84 74 74 65 32 35 32 39 32 32 61 71 74 74 77 68 74 65 55 52 55 52 52 42 35 32 26 23 26 6 0 3 3 6 6
74 84 94 100 61 58 55 71 71 77 61 61 55 42 42 19 39 45 39 58 68 71 77 77 71 58 52 55 45 55 52 52 45 39 35 32 32 19 6 3 0 3 6
94 87 81 97 65 68 81 77 74 61 65 48 52 48 55 52 39 45 48 48 55 68 77 74 71 65 61 58 48 48 55 58 58 52 55 42 39 26 13 10 6 3 3
90 97 77 74 87 65 65 74 58 48 45 45 61 45 55 61 52 52 45 48 45 29 52 77 68 71 65 48 48 55 58 68 68 55 52 42 35 35 19 10 10 10 10
87 94 77 87 90 61 52 39 45 45 45 58 39 61 48 52 68 32 35 23 39 42 42 68 58 61 55 45 42 45 58 61 65 52 42 42 26 32 26 13 10 19 13
90 90 81 87 65 68 71 65 71 77 61 61 29 26 32 35 45 48 42 35 39 29 26 32 55 52 61 48 48 45 48 48 52 55 55 42 39 29 26 19 16 10 13
90 94 65 90 87 71 74 48 58 52 52 48 55 58 42 23 42 39 48 39 19 29 32 35 48 48 61 35 42 42 45 39 48 48 48 48 42 42 23 16 6 3 3
87 74 90 77 87 94 84 77 77 65 45 48 55 61 35 48 55 10 45 48 42 39 42 23 61 55 35 52 26 35 45 45 42 48 55 55 39 35 26 23 16 10 3
84 84 84 74 84 68 74 81 90 77 58 48 39 42 39 42 26 35 39 39 48 55 35 48 48 55 52 48 52 19 55 48 52 42 35 45 39 32 26 23 19 13 6
65 68 74 81 81 65 77 68 55 65 77 55 48 55 35 29 39 29 32 23 35 48 35 13 19 45 52 48 48 13 32 35 32 39 32 39 45 23 19 16 16 16 6
58 58 71 74 81 71 71 68 68 71 68 58 52 35 39 39 23 32 26 19 29 29 35 42 29 26 32 39 45 19 19 3 6 19 32 32 26 26 16 16 19 16 6
61 52 68 77 71 68 74 77 74 71 71 68 65 48 45 39 35 35 23 29 32 13 29 35 23 32 42 39 19 13 3 0 0 0 6 10 16 16 16 13 19 16 10
52 65 58 77 74 74 71 84 84 74 68 74 81 61 48 32 29 42 42 29 16 16 29 16 29 32 26 29 39 3 3 0 0 0 0 0 3 6 13 13 10 10 6
42 58 55 68 65 65 45 81 65 61 68 71 55 77 65 32 39 32 39 39 32 16 13 13 29 29 23 26 10 0 13 0 0 0 0 0 0 0 0 6 6 6 6
32 35 55 61 58 58 65 68 71 71 58 58 52 61 61 52 32 39 29 39 32 23 19 16 23 23 23 42 6 19 26 3 0 0 0 0 0 0 0 0 0 0 0
45 42 45 48 58 61 65 74 61 55 61 61 68 65 65 35 35 32 29 26 32 42 29 10 23 6 16 6 0 23 23 3 0 0 0 0 0 0 0 0 0 0 0
48 55 55 52 55 52 55 61 39 45 42 55 55 48 58 55 42 29 26 35 29 35 35 29 16 10 16 13 10 13 10 16 6 0 0 0 0 0 0 0 0 0 0
58 55 61 58 58 48 48 55 61 32 32 35 45 42 42 42 55 39 45 32 35 42 23 35 16 10 16 13 10 13 3 0 0 0 0 0 0 0 0 0 0 0 0
58 48 61 61 48 48 48 48 42 35 32 35 35 45 39 32 39 35 42 32 26 13 23 26 23 19 6 6 6 6 3 6 0 0 0 0 0 0 0 0 0 0 0
48 45 48 48 45 42 42 35 29 32 35 35 29 35 32 39 29 29 32 32 32 26 19 16 16 10 10 6 6 6 3 6 6 0 0 0 0 0 0 0 0 0 0
35 45 45 48 45 39 32 32 35 26 35 35 35 39 26 26 23 19 16 29 23 16 16 10 13 10 6 6 6 3 3 6 3 3 3 0 0 0 0 0 0 0 0
29 32 32 35 29 23 6 0 6 29 32 29 26 26 23 23 6 0 0 0 0 16 19 19 13 16 16 13 10 6 6 3 3 3 3 3 0 0 3 3 0 0 0
35 35 35 32 32 19 3 0 0 6 26 26 29 26 16 6 6 13 0 0 0 0 0 10 10 6 10 10 10 6 6 6 3 3 3 0 3 0 0 0 0 0 0
29 32 26 19 23 16 3 0 0 0 16 23 26 19 23 19 13 13 13 3 3 3 0 0 0 6 3 6 6 0 0 0 0 3 3 0 0 0 0 0 0 0 0
26 26 26 23 23 16 6 0 0 13 19 19 19 19 19 19 10 0 0 3 0 3 0 0 0 0 0 0 0 0 0 0 0 0 0 0 0 0 0 0 0 0 0
29 23 19 19 19 16 6 0 0 10 16 13 16 16 0 3 0 0 0 0 0 0 0 0 0 0 0 0 0 0 0 0 0 0 0 0 0 0 0 0 0 0 0